Time,TemperatureF,DewpointF,PressureIn,WindDirection,WindDirectionDegrees,WindSpeedMPH,WindSpeedGustMPH,Humidity,HourlyPrecipIn,Conditions,Clouds,dailyrainin,SoftwareType,DateUTC
2013-10-25 00:00:00,30.3,25.5,30.38,WNW,294,0.0,2.0,82,0.00,,---,0.00,VWS V14.01,2013-10-25 05:00:00,
2013-10-25 00:01:00,30.4,25.6,30.38,WNW,294,0.0,0.0,82,0.00,,---,0.00,VWS V14.01,2013-10-25 05:01:00,
2013-10-25 00:06:00,30.6,25.5,30.38,WNW,294,0.0,1.0,81,0.00,,---,0.00,VWS V14.01,2013-10-25 05:06:00,
2013-10-25 00:11:00,30.7,25.3,30.38,WNW,294,0.0,1.0,80,0.00,,---,0.00,VWS V14.01,2013-10-25 05:11:00,
2013-10-25 00:16:00,30.8,25.7,30.38,WNW,294,0.0,1.0,81,0.00,,---,0.00,VWS V14.01,2013-10-25 05:16:00,
2013-10-25 00:21:00,30.5,25.7,30.39,WNW,294,0.0,1.0,82,0.00,,---,0.00,VWS V14.01,2013-10-25 05:21:00,
2013-10-25 00:26:00,30.2,25.4,30.39,WNW,294,0.0,1.0,82,0.00,,---,0.00,VWS V14.01,2013-10-25 05:26:00,
2013-10-25 00:30:00,30.1,25.6,30.39,WNW,294,0.0,3.0,83,0.00,,---,0.00,VWS V14.01,2013-10-25 05:30:00,
2013-10-25 00:31:00,30.1,25.6,30.39,WNW,294,0.0,0.0,83,0.00,,---,0.00,VWS V14.01,2013-10-25 05:31:00,
2013-10-25 00:36:00,29.9,25.4,30.39,SW,234,0.0,4.0,83,0.00,,---,0.00,VWS V14.01,2013-10-25 05:36:00,
2013-10-25 00:41:00,29.7,25.5,30.39,SW,234,0.0,4.0,84,0.00,,---,0.00,VWS V14.01,2013-10-25 05:41:00,
2013-10-25 00:46:00,29.6,25.6,30.39,SW,234,0.0,4.0,85,0.00,,---,0.00,VWS V14.01,2013-10-25 05:46:00,
2013-10-25 00:51:00,29.5,25.6,30.39,SW,234,0.0,4.0,85,0.00,,---,0.00,VWS V14.01,2013-10-25 05:51:00,
2013-10-25 00:56:00,29.4,25.5,30.39,SW,234,0.0,4.0,85,0.00,,---,0.00,VWS V14.01,2013-10-25 05:56:00,
2013-10-25 01:00:00,29.3,25.4,30.39,SW,234,0.0,4.0,85,0.00,,---,0.00,VWS V14.01,2013-10-25 06:00:00,
2013-10-25 01:01:00,29.2,25.5,30.39,SW,234,0.0,0.0,86,0.00,,---,0.00,VWS V14.01,2013-10-25 06:01:00,
2013-10-25 01:06:00,29.1,25.4,30.39,SW,234,0.0,0.0,86,0.00,,---,0.00,VWS V14.01,2013-10-25 06:06:00,
2013-10-25 01:11:00,28.8,25.1,30.39,SW,234,0.0,0.0,86,0.00,,---,0.00,VWS V14.01,2013-10-25 06:11:00,
2013-10-25 01:16:00,28.6,25.2,30.40,SW,234,0.0,0.0,87,0.00,,---,0.00,VWS V14.01,2013-10-25 06:16:00,
2013-10-25 01:21:00,28.4,25.0,30.39,SW,234,0.0,1.0,87,0.00,,---,0.00,VWS V14.01,2013-10-25 06:21:00,
2013-10-25 01:26:00,28.3,25.2,30.40,SW,234,0.0,1.0,88,0.00,,---,0.00,VWS V14.01,2013-10-25 06:26:00,
2013-10-25 01:30:00,28.2,25.1,30.40,SW,234,0.0,1.0,88,0.00,,---,0.00,VWS V14.01,2013-10-25 06:30:00,
2013-10-25 01:31:00,28.1,25.0,30.40,SW,234,0.0,0.0,88,0.00,,---,0.00,VWS V14.01,2013-10-25 06:31:00,
2013-10-25 01:36:00,28.1,25.0,30.40,SW,235,0.0,1.0,88,0.00,,---,0.00,VWS V14.01,2013-10-25 06:36:00,
2013-10-25 01:41:00,28.0,24.9,30.40,SW,235,0.0,1.0,88,0.00,,---,0.00,VWS V14.01,2013-10-25 06:41:00,
2013-10-25 01:46:00,28.0,25.2,30.41,SW,235,0.0,1.0,89,0.00,,---,0.00,VWS V14.01,2013-10-25 06:46:00,
2013-10-25 01:51:00,28.1,25.3,30.41,SW,235,0.0,2.0,89,0.00,,---,0.00,VWS V14.01,2013-10-25 06:51:00,
2013-10-25 01:56:00,28.5,25.7,30.41,SW,235,0.0,2.0,89,0.00,,---,0.00,VWS V14.01,2013-10-25 06:56:00,
2013-10-25 02:00:00,28.8,25.7,30.41,SW,235,0.0,2.0,88,0.00,,---,0.00,VWS V14.01,2013-10-25 07:00:00,
2013-10-25 02:01:00,29.0,25.9,30.41,SW,235,0.0,0.0,88,0.00,,---,0.00,VWS V14.01,2013-10-25 07:01:00,
2013-10-25 02:06:00,29.4,26.0,30.41,SW,235,0.0,0.0,87,0.00,,---,0.00,VWS V14.01,2013-10-25 07:06:00,
2013-10-25 02:11:00,29.9,26.2,30.41,SW,235,0.0,0.0,86,0.00,,---,0.00,VWS V14.01,2013-10-25 07:11:00,
2013-10-25 02:16:00,30.4,26.4,30.41,SW,235,0.0,0.0,85,0.00,,---,0.00,VWS V14.01,2013-10-25 07:16:00,
2013-10-25 02:21:00,30.5,26.2,30.41,SW,235,0.0,0.0,84,0.00,,---,0.00,VWS V14.01,2013-10-25 07:21:00,
2013-10-25 02:26:00,30.4,26.1,30.42,SW,235,0.0,0.0,84,0.00,,---,0.00,VWS V14.01,2013-10-25 07:26:00,
2013-10-25 02:30:00,30.3,26.1,30.42,SW,235,0.0,0.0,84,0.00,,---,0.00,VWS V14.01,2013-10-25 07:30:00,
2013-10-25 02:31:00,30.3,26.1,30.42,SW,235,0.0,0.0,84,0.00,,---,0.00,VWS V14.01,2013-10-25 07:31:00,
2013-10-25 02:36:00,30.1,25.9,30.42,SW,235,0.0,0.0,84,0.00,,---,0.00,VWS V14.01,2013-10-25 07:36:00,
2013-10-25 02:41:00,30.1,25.9,30.42,SW,235,0.0,0.0,84,0.00,,---,0.00,VWS V14.01,2013-10-25 07:41:00,
2013-10-25 02:46:00,29.9,25.7,30.42,SW,235,0.0,0.0,84,0.00,,---,0.00,VWS V14.01,2013-10-25 07:46:00,
2013-10-25 02:51:00,29.8,25.9,30.42,SW,235,0.0,0.0,85,0.00,,---,0.00,VWS V14.01,2013-10-25 07:51:00,
2013-10-25 02:56:00,29.7,25.8,30.42,SW,235,0.0,0.0,85,0.00,,---,0.00,VWS V14.01,2013-10-25 07:56:00,
2013-10-25 03:00:00,29.6,25.9,30.42,SW,235,0.0,0.0,86,0.00,,---,0.00,VWS V14.01,2013-10-25 08:00:00,
2013-10-25 03:01:00,29.5,25.8,30.42,SW,235,0.0,0.0,86,0.00,,---,0.00,VWS V14.01,2013-10-25 08:01:00,
2013-10-25 03:06:00,29.2,25.5,30.42,SW,235,0.0,0.0,86,0.00,,---,0.00,VWS V14.01,2013-10-25 08:06:00,
2013-10-25 03:11:00,28.8,25.1,30.42,SW,235,0.0,0.0,86,0.00,,---,0.00,VWS V14.01,2013-10-25 08:11:00,
2013-10-25 03:16:00,28.5,25.1,30.42,SW,235,0.0,0.0,87,0.00,,---,0.00,VWS V14.01,2013-10-25 08:16:00,
2013-10-25 03:21:00,28.2,24.8,30.42,SW,235,0.0,0.0,87,0.00,,---,0.00,VWS V14.01,2013-10-25 08:21:00,
2013-10-25 03:26:00,28.0,24.6,30.42,SW,235,0.0,0.0,87,0.00,,---,0.00,VWS V14.01,2013-10-25 08:26:00,
2013-10-25 03:30:00,27.9,24.5,30.42,SW,235,0.0,0.0,87,0.00,,---,0.00,VWS V14.01,2013-10-25 08:30:00,
2013-10-25 03:31:00,27.9,24.8,30.42,SW,235,0.0,0.0,88,0.00,,---,0.00,VWS V14.01,2013-10-25 08:31:00,
2013-10-25 03:36:00,27.8,24.7,30.42,SW,235,0.0,0.0,88,0.00,,---,0.00,VWS V14.01,2013-10-25 08:36:00,
2013-10-25 03:41:00,27.6,24.5,30.42,SW,235,0.0,0.0,88,0.00,,---,0.00,VWS V14.01,2013-10-25 08:41:00,
2013-10-25 03:46:00,27.5,24.7,30.42,SW,235,0.0,0.0,89,0.00,,---,0.00,VWS V14.01,2013-10-25 08:46:00,
2013-10-25 03:51:00,27.4,24.6,30.42,SW,235,0.0,0.0,89,0.00,,---,0.00,VWS V14.01,2013-10-25 08:51:00,
2013-10-25 03:56:00,27.2,24.4,30.42,SW,235,0.0,0.0,89,0.00,,---,0.00,VWS V14.01,2013-10-25 08:56:00,
2013-10-25 04:00:00,27.1,24.3,30.42,SW,235,0.0,0.0,89,0.00,,---,0.00,VWS V14.01,2013-10-25 09:00:00,
2013-10-25 04:01:00,27.1,24.3,30.42,SW,235,0.0,0.0,89,0.00,,---,0.00,VWS V14.01,2013-10-25 09:01:00,
2013-10-25 04:06:00,27.0,24.5,30.42,SW,235,0.0,0.0,90,0.00,,---,0.00,VWS V14.01,2013-10-25 09:06:00,
2013-10-25 04:11:00,27.0,24.5,30.41,SW,235,0.0,0.0,90,0.00,,---,0.00,VWS V14.01,2013-10-25 09:11:00,
2013-10-25 04:16:00,27.1,24.6,30.42,SW,235,0.0,0.0,90,0.00,,---,0.00,VWS V14.01,2013-10-25 09:16:00,
2013-10-25 04:21:00,27.1,24.6,30.42,SW,235,0.0,0.0,90,0.00,,---,0.00,VWS V14.01,2013-10-25 09:21:00,
2013-10-25 04:26:00,27.0,24.5,30.42,SW,235,0.0,0.0,90,0.00,,---,0.00,VWS V14.01,2013-10-25 09:26:00,
2013-10-25 04:30:00,26.9,24.4,30.42,SW,235,0.0,0.0,90,0.00,,---,0.00,VWS V14.01,2013-10-25 09:30:00,
2013-10-25 04:31:00,26.9,24.4,30.42,SW,235,0.0,0.0,90,0.00,,---,0.00,VWS V14.01,2013-10-25 09:31:00,
2013-10-25 04:36:00,26.8,24.3,30.42,SW,235,0.0,0.0,90,0.00,,---,0.00,VWS V14.01,2013-10-25 09:36:00,
2013-10-25 04:41:00,26.8,24.5,30.42,SW,235,0.0,0.0,91,0.00,,---,0.00,VWS V14.01,2013-10-25 09:41:00,
2013-10-25 04:46:00,26.8,24.5,30.42,SW,235,0.0,0.0,91,0.00,,---,0.00,VWS V14.01,2013-10-25 09:46:00,
2013-10-25 04:51:00,26.8,24.5,30.43,SW,235,0.0,1.0,91,0.00,,---,0.00,VWS V14.01,2013-10-25 09:51:00,
2013-10-25 04:56:00,26.8,24.5,30.43,SW,235,0.0,1.0,91,0.00,,---,0.00,VWS V14.01,2013-10-25 09:56:00,
2013-10-25 05:00:00,26.8,24.5,30.43,SW,235,0.0,1.0,91,0.00,,---,0.00,VWS V14.01,2013-10-25 10:00:00,
2013-10-25 05:01:00,26.7,24.4,30.43,SW,235,0.0,0.0,91,0.00,,---,0.00,VWS V14.01,2013-10-25 10:01:00,
2013-10-25 05:06:00,26.7,24.4,30.43,SW,235,0.0,0.0,91,0.00,,---,0.00,VWS V14.01,2013-10-25 10:06:00,
2013-10-25 05:11:00,26.6,24.3,30.43,SW,235,0.0,0.0,91,0.00,,---,0.00,VWS V14.01,2013-10-25 10:11:00,
2013-10-25 05:16:00,26.5,24.2,30.43,SW,235,0.0,0.0,91,0.00,,---,0.00,VWS V14.01,2013-10-25 10:16:00,
2013-10-25 05:21:00,26.5,24.2,30.43,SW,235,0.0,0.0,91,0.00,,---,0.00,VWS V14.01,2013-10-25 10:21:00,
2013-10-25 05:26:00,26.4,24.1,30.43,SW,235,0.0,0.0,91,0.00,,---,0.00,VWS V14.01,2013-10-25 10:26:00,
2013-10-25 05:30:00,26.4,24.1,30.43,SW,235,0.0,1.0,91,0.00,,---,0.00,VWS V14.01,2013-10-25 10:30:00,
2013-10-25 05:31:00,26.4,24.1,30.43,SW,235,0.0,0.0,91,0.00,,---,0.00,VWS V14.01,2013-10-25 10:31:00,
2013-10-25 05:36:00,26.4,24.1,30.43,SW,235,0.0,0.0,91,0.00,,---,0.00,VWS V14.01,2013-10-25 10:36:00,
2013-10-25 05:41:00,26.3,24.0,30.43,SW,235,0.0,0.0,91,0.00,,---,0.00,VWS V14.01,2013-10-25 10:41:00,
2013-10-25 05:46:00,26.3,24.0,30.43,SW,235,0.0,0.0,91,0.00,,---,0.00,VWS V14.01,2013-10-25 10:46:00,
2013-10-25 05:51:00,26.3,24.0,30.44,SW,235,0.0,2.0,91,0.00,,---,0.00,VWS V14.01,2013-10-25 10:51:00,
2013-10-25 05:56:00,26.2,23.9,30.44,SW,235,0.0,2.0,91,0.00,,---,0.00,VWS V14.01,2013-10-25 10:56:00,
2013-10-25 06:00:00,26.2,23.9,30.44,SW,235,0.0,2.0,91,0.00,,---,0.00,VWS V14.01,2013-10-25 11:00:00,
2013-10-25 06:01:00,26.2,23.9,30.44,SW,235,0.0,0.0,91,0.00,,---,0.00,VWS V14.01,2013-10-25 11:01:00,
2013-10-25 06:06:00,26.1,24.1,30.44,SW,235,0.0,0.0,92,0.00,,---,0.00,VWS V14.01,2013-10-25 11:06:00,
2013-10-25 06:11:00,26.1,24.1,30.44,SW,234,0.0,2.0,92,0.00,,---,0.00,VWS V14.01,2013-10-25 11:11:00,
2013-10-25 06:16:00,26.0,24.0,30.44,SW,234,0.0,2.0,92,0.00,,---,0.00,VWS V14.01,2013-10-25 11:16:00,
2013-10-25 06:21:00,26.0,24.0,30.45,SW,234,0.0,2.0,92,0.00,,---,0.00,VWS V14.01,2013-10-25 11:21:00,
2013-10-25 06:26:00,26.0,24.0,30.44,SW,234,0.0,2.0,92,0.00,,---,0.00,VWS V14.01,2013-10-25 11:26:00,
2013-10-25 06:30:00,26.0,24.0,30.45,SW,234,0.0,2.0,92,0.00,,---,0.00,VWS V14.01,2013-10-25 11:30:00,
2013-10-25 06:31:00,26.0,24.0,30.45,SW,234,0.0,0.0,92,0.00,,---,0.00,VWS V14.01,2013-10-25 11:31:00,
2013-10-25 06:35:00,26.1,24.1,30.45,SW,234,0.0,0.0,92,0.00,,---,0.00,VWS V14.01,2013-10-25 11:35:00,
2013-10-25 06:40:00,26.2,24.2,30.45,SW,234,0.0,0.0,92,0.00,,---,0.00,VWS V14.01,2013-10-25 11:40:00,
2013-10-25 06:45:00,26.3,24.3,30.45,SW,234,0.0,0.0,92,0.00,,---,0.00,VWS V14.01,2013-10-25 11:45:00,
2013-10-25 06:50:00,26.7,25.0,30.44,SW,234,0.0,0.0,93,0.00,,---,0.00,VWS V14.01,2013-10-25 11:50:00,
2013-10-25 06:55:00,26.9,24.9,30.44,SW,234,0.0,1.0,92,0.00,,---,0.00,VWS V14.01,2013-10-25 11:55:00,
2013-10-25 07:00:00,26.7,24.7,30.44,SW,234,0.0,1.0,92,0.00,,---,0.00,VWS V14.01,2013-10-25 12:00:00,
2013-10-25 07:05:00,26.6,24.6,30.45,SW,235,0.0,1.0,92,0.00,,---,0.00,VWS V14.01,2013-10-25 12:05:00,
2013-10-25 07:10:00,26.7,24.7,30.45,SW,235,0.0,1.0,92,0.00,,---,0.00,VWS V14.01,2013-10-25 12:10:00,
2013-10-25 07:15:00,26.7,24.7,30.45,SW,236,0.0,5.0,92,0.00,,---,0.00,VWS V14.01,2013-10-25 12:15:00,
2013-10-25 07:20:00,26.8,24.8,30.45,SW,236,0.0,5.0,92,0.00,,---,0.00,VWS V14.01,2013-10-25 12:20:00,
2013-10-25 07:25:00,26.8,24.8,30.45,SW,236,0.0,5.0,92,0.00,,---,0.00,VWS V14.01,2013-10-25 12:25:00,
2013-10-25 07:30:00,26.8,24.5,30.45,SW,236,0.0,0.0,91,0.00,,---,0.00,VWS V14.01,2013-10-25 12:30:00,
2013-10-25 07:35:00,26.9,24.6,30.45,SW,236,0.0,2.0,91,0.00,,---,0.00,VWS V14.01,2013-10-25 12:35:00,
2013-10-25 07:40:00,27.0,24.7,30.45,SW,236,0.0,2.0,91,0.00,,---,0.00,VWS V14.01,2013-10-25 12:40:00,
2013-10-25 07:45:00,27.0,24.7,30.45,WSW,238,0.0,5.0,91,0.00,,---,0.00,VWS V14.01,2013-10-25 12:45:00,
2013-10-25 07:50:00,27.0,24.7,30.44,WSW,238,0.0,5.0,91,0.00,,---,0.00,VWS V14.01,2013-10-25 12:50:00,
2013-10-25 07:55:00,26.9,24.6,30.44,WSW,238,0.0,5.0,91,0.00,,---,0.00,VWS V14.01,2013-10-25 12:55:00,
2013-10-25 08:00:00,27.1,24.8,30.45,WSW,238,0.0,0.0,91,0.00,,---,0.00,VWS V14.01,2013-10-25 13:00:00,
2013-10-25 08:05:00,27.2,24.9,30.45,WSW,238,0.0,0.0,91,0.00,,---,0.00,VWS V14.01,2013-10-25 13:05:00,
2013-10-25 08:10:00,27.4,25.1,30.45,WSW,238,0.0,2.0,91,0.00,,---,0.00,VWS V14.01,2013-10-25 13:10:00,
2013-10-25 08:15:00,27.6,25.3,30.45,WSW,238,0.0,2.0,91,0.00,,---,0.00,VWS V14.01,2013-10-25 13:15:00,
2013-10-25 08:20:00,27.9,25.6,30.45,WSW,238,0.0,2.0,91,0.00,,---,0.00,VWS V14.01,2013-10-25 13:20:00,
2013-10-25 08:25:00,28.2,25.9,30.45,WSW,238,0.0,2.0,91,0.00,,---,0.00,VWS V14.01,2013-10-25 13:25:00,
2013-10-25 08:30:00,28.5,26.2,30.45,WSW,238,0.0,0.0,91,0.00,,---,0.00,VWS V14.01,2013-10-25 13:30:00,
2013-10-25 08:35:00,28.9,26.9,30.45,WSW,238,0.0,0.0,92,0.00,,---,0.00,VWS V14.01,2013-10-25 13:35:00,
2013-10-25 08:40:00,29.2,26.9,30.46,WSW,238,0.0,0.0,91,0.00,,---,0.00,VWS V14.01,2013-10-25 13:40:00,
2013-10-25 08:45:00,29.4,27.4,30.45,SSW,208,1.0,2.0,92,0.00,,---,0.00,VWS V14.01,2013-10-25 13:45:00,
2013-10-25 08:50:00,29.9,27.9,30.45,South,188,0.0,2.0,92,0.00,,---,0.00,VWS V14.01,2013-10-25 13:50:00,
2013-10-25 08:55:00,30.5,28.5,30.46,South,188,0.0,2.0,92,0.00,,---,0.00,VWS V14.01,2013-10-25 13:55:00,
2013-10-25 09:00:00,31.1,29.0,30.46,SSW,204,0.0,0.0,92,0.00,,---,0.00,VWS V14.01,2013-10-25 14:00:00,
2013-10-25 09:05:00,31.9,30.1,30.46,SW,220,0.0,4.0,93,0.00,,---,0.00,VWS V14.01,2013-10-25 14:05:00,
2013-10-25 09:10:00,33.3,31.5,30.46,SW,223,1.0,4.0,93,0.00,,---,0.00,VWS V14.01,2013-10-25 14:10:00,
2013-10-25 09:15:00,34.6,32.5,30.46,SW,227,5.0,8.0,92,0.00,,---,0.00,VWS V14.01,2013-10-25 14:15:00,
2013-10-25 09:20:00,35.5,32.6,30.46,WSW,243,1.0,8.0,89,0.00,,---,0.00,VWS V14.01,2013-10-25 14:20:00,
2013-10-25 09:25:00,36.3,33.1,30.46,West,263,1.0,8.0,88,0.00,,---,0.00,VWS V14.01,2013-10-25 14:25:00,
2013-10-25 09:30:00,37.0,33.2,30.46,North,5,0.0,6.0,86,0.00,,---,0.00,VWS V14.01,2013-10-25 14:30:00,
2013-10-25 09:35:00,37.4,33.6,30.46,SSW,205,0.0,8.0,86,0.00,,---,0.00,VWS V14.01,2013-10-25 14:35:00,
2013-10-25 09:40:00,37.9,33.8,30.46,West,273,0.0,8.0,85,0.00,,---,0.00,VWS V14.01,2013-10-25 14:40:00,
2013-10-25 09:45:00,38.3,33.6,30.46,West,266,4.0,8.0,83,0.00,,---,0.00,VWS V14.01,2013-10-25 14:45:00,
2013-10-25 09:50:00,38.7,33.7,30.46,SSE,164,0.0,8.0,82,0.00,,---,0.00,VWS V14.01,2013-10-25 14:50:00,
2013-10-25 09:55:00,39.3,33.7,30.46,West,274,1.0,8.0,80,0.00,,---,0.00,VWS V14.01,2013-10-25 14:55:00,
2013-10-25 10:00:00,39.8,34.1,30.46,SW,232,0.0,1.0,80,0.00,,---,0.00,VWS V14.01,2013-10-25 15:00:00,
2013-10-25 10:05:00,40.3,34.3,30.46,SSE,163,0.0,4.0,79,0.00,,---,0.00,VWS V14.01,2013-10-25 15:05:00,
2013-10-25 10:10:00,41.3,34.7,30.45,WSW,240,7.0,7.0,77,0.00,,---,0.00,VWS V14.01,2013-10-25 15:10:00,
2013-10-25 10:15:00,42.0,35.0,30.45,WSW,250,5.0,7.0,76,0.00,,---,0.00,VWS V14.01,2013-10-25 15:15:00,
2013-10-25 10:20:00,42.7,34.7,30.45,West,261,4.0,9.0,73,0.00,,---,0.00,VWS V14.01,2013-10-25 15:20:00,
2013-10-25 10:25:00,43.4,35.0,30.45,South,186,0.0,9.0,72,0.00,,---,0.00,VWS V14.01,2013-10-25 15:25:00,
2013-10-25 10:30:00,43.8,34.7,30.45,WSW,248,6.0,6.0,70,0.00,,---,0.00,VWS V14.01,2013-10-25 15:30:00,
2013-10-25 10:35:00,44.2,35.0,30.45,South,172,2.0,7.0,70,0.00,,---,0.00,VWS V14.01,2013-10-25 15:35:00,
2013-10-25 10:40:00,45.2,35.3,30.45,WSW,239,0.0,7.0,68,0.00,,---,0.00,VWS V14.01,2013-10-25 15:40:00,
2013-10-25 10:45:00,45.9,35.2,30.45,SW,227,0.0,8.0,66,0.00,,---,0.00,VWS V14.01,2013-10-25 15:45:00,
2013-10-25 10:50:00,46.3,35.2,30.45,SE,130,0.0,8.0,65,0.00,,---,0.00,VWS V14.01,2013-10-25 15:50:00,
2013-10-25 10:55:00,46.6,35.5,30.44,SSW,201,4.0,9.0,65,0.00,,---,0.00,VWS V14.01,2013-10-25 15:55:00,
2013-10-25 11:00:00,46.8,34.9,30.44,WSW,246,1.0,10.0,63,0.00,,---,0.00,VWS V14.01,2013-10-25 16:00:00,
2013-10-25 11:05:00,46.6,33.9,30.44,SW,236,0.0,10.0,61,0.00,,---,0.00,VWS V14.01,2013-10-25 16:05:00,
2013-10-25 11:10:00,46.2,33.9,30.44,East,90,1.0,10.0,62,0.00,,---,0.00,VWS V14.01,2013-10-25 16:10:00,
2013-10-25 11:15:00,46.1,33.8,30.44,NW,325,0.0,10.0,62,0.00,,---,0.00,VWS V14.01,2013-10-25 16:15:00,
2013-10-25 11:20:00,46.0,34.1,30.44,North,355,2.0,10.0,63,0.00,,---,0.00,VWS V14.01,2013-10-25 16:20:00,
2013-10-25 11:25:00,46.2,34.3,30.45,SW,227,6.0,10.0,63,0.00,,---,0.00,VWS V14.01,2013-10-25 16:25:00,
2013-10-25 11:30:00,46.5,34.2,30.44,South,173,2.0,4.0,62,0.00,,---,0.00,VWS V14.01,2013-10-25 16:30:00,
2013-10-25 11:35:00,46.7,34.4,30.44,WNW,282,2.0,9.0,62,0.00,,---,0.00,VWS V14.01,2013-10-25 16:35:00,
2013-10-25 11:40:00,46.8,34.1,30.44,WSW,242,5.0,9.0,61,0.00,,---,0.00,VWS V14.01,2013-10-25 16:40:00,
2013-10-25 11:45:00,46.9,34.2,30.44,WNW,303,3.0,9.0,61,0.00,,---,0.00,VWS V14.01,2013-10-25 16:45:00,
2013-10-25 11:50:00,47.1,33.1,30.44,NW,308,5.0,9.0,58,0.00,,---,0.00,VWS V14.01,2013-10-25 16:50:00,
2013-10-25 11:55:00,47.2,33.2,30.44,NW,306,0.0,9.0,58,0.00,,---,0.00,VWS V14.01,2013-10-25 16:55:00,
2013-10-25 12:00:00,47.3,32.4,30.43,West,262,0.0,10.0,56,0.00,,---,0.00,VWS V14.01,2013-10-25 17:00:00,
2013-10-25 12:05:00,47.4,32.5,30.43,West,279,5.0,10.0,56,0.00,,---,0.00,VWS V14.01,2013-10-25 17:05:00,
2013-10-25 12:10:00,47.5,32.6,30.43,WNW,302,4.0,10.0,56,0.00,,---,0.00,VWS V14.01,2013-10-25 17:10:00,
2013-10-25 12:15:00,47.7,32.3,30.43,WSW,249,5.0,10.0,55,0.00,,---,0.00,VWS V14.01,2013-10-25 17:15:00,
2013-10-25 12:20:00,47.9,32.1,30.42,WNW,293,2.0,10.0,54,0.00,,---,0.00,VWS V14.01,2013-10-25 17:20:00,
2013-10-25 12:25:00,48.1,32.3,30.42,WNW,294,1.0,13.0,54,0.00,,---,0.00,VWS V14.01,2013-10-25 17:25:00,
2013-10-25 12:30:00,48.3,31.5,30.42,SE,141,0.0,3.0,52,0.00,,---,0.00,VWS V14.01,2013-10-25 17:30:00,
2013-10-25 12:35:00,48.7,32.3,30.41,ESE,123,2.0,8.0,53,0.00,,---,0.00,VWS V14.01,2013-10-25 17:35:00,
2013-10-25 12:40:00,49.0,32.2,30.41,WNW,287,2.0,11.0,52,0.00,,---,0.00,VWS V14.01,2013-10-25 17:40:00,
2013-10-25 12:45:00,48.9,31.1,30.41,SW,227,7.0,11.0,50,0.00,,---,0.00,VWS V14.01,2013-10-25 17:45:00,
2013-10-25 12:50:00,49.0,30.7,30.41,WNW,286,2.0,11.0,49,0.00,,---,0.00,VWS V14.01,2013-10-25 17:50:00,
2013-10-25 12:55:00,49.1,31.8,30.40,WNW,298,4.0,11.0,51,0.00,,---,0.00,VWS V14.01,2013-10-25 17:55:00,
2013-10-25 13:00:00,49.3,31.5,30.40,WNW,288,5.0,6.0,50,0.00,,---,0.00,VWS V14.01,2013-10-25 18:00:00,
2013-10-25 13:05:00,49.1,30.8,30.40,NW,319,4.0,10.0,49,0.00,,---,0.00,VWS V14.01,2013-10-25 18:05:00,
2013-10-25 13:10:00,49.1,30.3,30.39,South,190,7.0,10.0,48,0.00,,---,0.00,VWS V14.01,2013-10-25 18:10:00,
2013-10-25 13:15:00,49.3,31.0,30.39,SW,224,2.0,10.0,49,0.00,,---,0.00,VWS V14.01,2013-10-25 18:15:00,
2013-10-25 13:20:00,49.4,31.1,30.39,SSW,207,6.0,10.0,49,0.00,,---,0.00,VWS V14.01,2013-10-25 18:20:00,
2013-10-25 13:25:00,49.6,31.2,30.38,NW,326,0.0,10.0,49,0.00,,---,0.00,VWS V14.01,2013-10-25 18:25:00,
2013-10-25 13:30:00,49.6,31.7,30.38,NW,323,1.0,4.0,50,0.00,,---,0.00,VWS V14.01,2013-10-25 18:30:00,
2013-10-25 13:35:00,49.9,32.0,30.37,SW,232,0.0,7.0,50,0.00,,---,0.00,VWS V14.01,2013-10-25 18:35:00,
2013-10-25 13:40:00,50.2,32.8,30.37,WSW,243,3.0,11.0,51,0.00,,---,0.00,VWS V14.01,2013-10-25 18:40:00,
2013-10-25 13:45:00,50.3,31.9,30.37,NNW,347,1.0,11.0,49,0.00,,---,0.00,VWS V14.01,2013-10-25 18:45:00,
2013-10-25 13:50:00,50.4,31.5,30.36,SW,215,10.0,15.0,48,0.00,,---,0.00,VWS V14.01,2013-10-25 18:50:00,
2013-10-25 13:55:00,50.4,31.5,30.36,West,271,4.0,15.0,48,0.00,,---,0.00,VWS V14.01,2013-10-25 18:55:00,
2013-10-25 14:00:00,50.5,32.1,30.36,SW,217,1.0,11.0,49,0.00,,---,0.00,VWS V14.01,2013-10-25 19:00:00,
2013-10-25 14:05:00,50.7,32.2,30.35,South,190,0.0,11.0,49,0.00,,---,0.00,VWS V14.01,2013-10-25 19:05:00,
2013-10-25 14:10:00,51.0,31.5,30.35,West,263,5.0,16.0,47,0.00,,---,0.00,VWS V14.01,2013-10-25 19:10:00,
2013-10-25 14:15:00,51.1,30.0,30.34,NW,325,0.0,16.0,44,0.00,,---,0.00,VWS V14.01,2013-10-25 19:15:00,
2013-10-25 14:20:00,51.1,30.0,30.34,NW,311,4.0,16.0,44,0.00,,---,0.00,VWS V14.01,2013-10-25 19:20:00,
2013-10-25 14:25:00,51.0,29.9,30.34,WSW,248,7.0,16.0,44,0.00,,---,0.00,VWS V14.01,2013-10-25 19:25:00,
2013-10-25 14:30:00,51.2,30.0,30.34,WSW,253,8.0,11.0,44,0.00,,---,0.00,VWS V14.01,2013-10-25 19:30:00,
2013-10-25 14:35:00,51.4,29.1,30.33,West,281,6.0,11.0,42,0.00,,---,0.00,VWS V14.01,2013-10-25 19:35:00,
2013-10-25 14:40:00,51.4,29.7,30.34,SSW,198,3.0,11.0,43,0.00,,---,0.00,VWS V14.01,2013-10-25 19:40:00,
2013-10-25 14:45:00,51.5,30.3,30.33,WNW,286,1.0,11.0,44,0.00,,---,0.00,VWS V14.01,2013-10-25 19:45:00,
2013-10-25 14:50:00,51.7,30.5,30.33,SSW,192,5.0,12.0,44,0.00,,---,0.00,VWS V14.01,2013-10-25 19:50:00,
2013-10-25 14:55:00,51.7,31.6,30.33,SW,232,10.0,12.0,46,0.00,,---,0.00,VWS V14.01,2013-10-25 19:55:00,
2013-10-25 15:00:00,51.7,30.5,30.32,SW,227,1.0,10.0,44,0.00,,---,0.00,VWS V14.01,2013-10-25 20:00:00,
2013-10-25 15:05:00,51.8,30.0,30.32,West,260,3.0,11.0,43,0.00,,---,0.00,VWS V14.01,2013-10-25 20:05:00,
2013-10-25 15:10:00,52.0,30.2,30.32,South,180,5.0,11.0,43,0.00,,---,0.00,VWS V14.01,2013-10-25 20:10:00,
2013-10-25 15:15:00,52.2,30.4,30.31,NW,325,0.0,11.0,43,0.00,,---,0.00,VWS V14.01,2013-10-25 20:15:00,
2013-10-25 15:20:00,52.1,30.3,30.31,WNW,296,4.0,14.0,43,0.00,,---,0.00,VWS V14.01,2013-10-25 20:20:00,
2013-10-25 15:25:00,51.9,30.1,30.31,SSW,197,0.0,14.0,43,0.00,,---,0.00,VWS V14.01,2013-10-25 20:25:00,
2013-10-25 15:30:00,51.9,31.2,30.31,SSE,152,5.0,8.0,45,0.00,,---,0.00,VWS V14.01,2013-10-25 20:30:00,
2013-10-25 15:35:00,51.9,31.2,30.31,WSW,241,0.0,9.0,45,0.00,,---,0.00,VWS V14.01,2013-10-25 20:35:00,
2013-10-25 15:40:00,51.9,29.5,30.31,South,185,8.0,12.0,42,0.00,,---,0.00,VWS V14.01,2013-10-25 20:40:00,
2013-10-25 15:45:00,51.9,30.7,30.30,SW,225,2.0,12.0,44,0.00,,---,0.00,VWS V14.01,2013-10-25 20:45:00,
2013-10-25 15:50:00,51.8,30.0,30.30,West,269,4.0,12.0,43,0.00,,---,0.00,VWS V14.01,2013-10-25 20:50:00,
2013-10-25 15:55:00,51.8,30.0,30.30,SSW,208,4.0,12.0,43,0.00,,---,0.00,VWS V14.01,2013-10-25 20:55:00,
2013-10-25 16:00:00,51.8,29.5,30.30,SSW,205,4.0,9.0,42,0.00,,---,0.00,VWS V14.01,2013-10-25 21:00:00,
2013-10-25 16:05:00,51.8,28.9,30.29,WSW,242,5.0,18.0,41,0.00,,---,0.00,VWS V14.01,2013-10-25 21:05:00,
2013-10-25 16:10:00,51.8,30.0,30.29,SW,220,9.0,18.0,43,0.00,,---,0.00,VWS V14.01,2013-10-25 21:10:00,
2013-10-25 16:15:00,51.7,29.4,30.29,NW,315,6.0,18.0,42,0.00,,---,0.00,VWS V14.01,2013-10-25 21:15:00,
2013-10-25 16:20:00,51.8,28.9,30.29,SW,229,1.0,18.0,41,0.00,,---,0.00,VWS V14.01,2013-10-25 21:20:00,
2013-10-25 16:25:00,51.8,28.3,30.29,WSW,256,5.0,18.0,40,0.00,,---,0.00,VWS V14.01,2013-10-25 21:25:00,
2013-10-25 16:30:00,51.8,28.3,30.28,WNW,294,0.0,5.0,40,0.00,,---,0.00,VWS V14.01,2013-10-25 21:30:00,
2013-10-25 16:35:00,51.8,28.3,30.28,WSW,248,0.0,13.0,40,0.00,,---,0.00,VWS V14.01,2013-10-25 21:35:00,
2013-10-25 16:40:00,51.8,27.6,30.28,NNW,337,3.0,18.0,39,0.00,,---,0.00,VWS V14.01,2013-10-25 21:40:00,
2013-10-25 16:45:00,51.7,28.2,30.27,WSW,242,3.0,18.0,40,0.00,,---,0.00,VWS V14.01,2013-10-25 21:45:00,
2013-10-25 16:50:00,51.5,28.6,30.27,SSW,209,1.0,18.0,41,0.00,,---,0.00,VWS V14.01,2013-10-25 21:50:00,
2013-10-25 16:55:00,51.4,27.3,30.27,SW,224,0.0,18.0,39,0.00,,---,0.00,VWS V14.01,2013-10-25 21:55:00,
2013-10-25 17:00:00,51.4,27.3,30.27,West,271,4.0,9.0,39,0.00,,---,0.00,VWS V14.01,2013-10-25 22:00:00,
2013-10-25 17:05:00,51.3,28.4,30.26,WSW,251,5.0,11.0,41,0.00,,---,0.00,VWS V14.01,2013-10-25 22:05:00,
2013-10-25 17:10:00,51.2,27.7,30.26,ESE,106,4.0,12.0,40,0.00,,---,0.00,VWS V14.01,2013-10-25 22:10:00,
2013-10-25 17:15:00,51.0,28.1,30.26,SSW,197,0.0,12.0,41,0.00,,---,0.00,VWS V14.01,2013-10-25 22:15:00,
2013-10-25 17:20:00,50.8,29.1,30.26,SW,218,2.0,12.0,43,0.00,,---,0.00,VWS V14.01,2013-10-25 22:20:00,
2013-10-25 17:25:00,50.5,28.9,30.26,WSW,244,2.0,13.0,43,0.00,,---,0.00,VWS V14.01,2013-10-25 22:25:00,
2013-10-25 17:30:00,50.2,29.7,30.26,SW,236,4.0,7.0,45,0.00,,---,0.00,VWS V14.01,2013-10-25 22:30:00,
2013-10-25 17:35:00,49.9,29.4,30.25,SW,228,0.0,8.0,45,0.00,,---,0.00,VWS V14.01,2013-10-25 22:35:00,
2013-10-25 17:40:00,49.6,29.1,30.25,SSW,213,0.0,9.0,45,0.00,,---,0.00,VWS V14.01,2013-10-25 22:40:00,
2013-10-25 17:45:00,49.2,29.3,30.25,West,260,4.0,9.0,46,0.00,,---,0.00,VWS V14.01,2013-10-25 22:45:00,
2013-10-25 17:50:00,48.8,28.4,30.25,SW,231,2.0,9.0,45,0.00,,---,0.00,VWS V14.01,2013-10-25 22:50:00,
2013-10-25 17:55:00,48.4,30.1,30.25,West,279,2.0,9.0,49,0.00,,---,0.00,VWS V14.01,2013-10-25 22:55:00,
2013-10-25 18:00:00,48.0,29.8,30.25,WSW,243,0.0,2.0,49,0.00,,---,0.00,VWS V14.01,2013-10-25 23:00:00,
2013-10-25 18:05:00,47.5,28.8,30.24,South,188,0.0,2.0,48,0.00,,---,0.00,VWS V14.01,2013-10-25 23:05:00,
2013-10-25 18:10:00,47.0,29.3,30.24,South,188,0.0,2.0,50,0.00,,---,0.00,VWS V14.01,2013-10-25 23:10:00,
2013-10-25 18:15:00,46.4,29.8,30.24,SSW,212,1.0,2.0,52,0.00,,---,0.00,VWS V14.01,2013-10-25 23:15:00,
2013-10-25 18:20:00,45.8,30.1,30.24,SW,219,2.0,8.0,54,0.00,,---,0.00,VWS V14.01,2013-10-25 23:20:00,
2013-10-25 18:25:00,45.2,30.0,30.24,South,188,0.0,8.0,55,0.00,,---,0.00,VWS V14.01,2013-10-25 23:25:00,
2013-10-25 18:30:00,44.6,29.0,30.24,WSW,244,0.0,1.0,54,0.00,,---,0.00,VWS V14.01,2013-10-25 23:30:00,
2013-10-25 18:35:00,44.0,29.3,30.23,SSW,209,0.0,2.0,56,0.00,,---,0.00,VWS V14.01,2013-10-25 23:35:00,
2013-10-25 18:40:00,43.4,28.8,30.23,South,177,0.0,4.0,56,0.00,,---,0.00,VWS V14.01,2013-10-25 23:40:00,
2013-10-25 18:45:00,42.9,28.7,30.23,SSW,197,0.0,4.0,57,0.00,,---,0.00,VWS V14.01,2013-10-25 23:45:00,
2013-10-25 18:50:00,42.5,28.8,30.23,SSW,197,0.0,4.0,58,0.00,,---,0.00,VWS V14.01,2013-10-25 23:50:00,
2013-10-25 18:55:00,42.1,28.8,30.23,South,184,0.0,7.0,59,0.00,,---,0.00,VWS V14.01,2013-10-25 23:55:00,
2013-10-25 19:00:00,41.8,29.4,30.23,South,178,0.0,0.0,61,0.00,,---,0.00,VWS V14.01,2013-10-26 00:00:00,
2013-10-25 19:05:00,41.5,29.5,30.23,South,176,0.0,3.0,62,0.00,,---,0.00,VWS V14.01,2013-10-26 00:05:00,
2013-10-25 19:10:00,41.3,29.7,30.23,SSW,211,1.0,5.0,63,0.00,,---,0.00,VWS V14.01,2013-10-26 00:10:00,
2013-10-25 19:15:00,41.1,30.2,30.23,SSW,211,0.0,5.0,65,0.00,,---,0.00,VWS V14.01,2013-10-26 00:15:00,
2013-10-25 19:20:00,40.9,29.7,30.23,SW,218,0.0,5.0,64,0.00,,---,0.00,VWS V14.01,2013-10-26 00:20:00,
2013-10-25 19:25:00,40.6,30.1,30.23,South,182,0.0,5.0,66,0.00,,---,0.00,VWS V14.01,2013-10-26 00:25:00,
2013-10-25 19:30:00,40.4,29.6,30.22,SE,128,1.0,1.0,65,0.00,,---,0.00,VWS V14.01,2013-10-26 00:30:00,
2013-10-25 19:35:00,40.2,31.2,30.22,West,276,0.0,3.0,70,0.00,,---,0.00,VWS V14.01,2013-10-26 00:35:00,
2013-10-25 19:40:00,39.9,30.6,30.22,South,184,0.0,5.0,69,0.00,,---,0.00,VWS V14.01,2013-10-26 00:40:00,
2013-10-25 19:45:00,39.7,30.7,30.22,South,190,0.0,6.0,70,0.00,,---,0.00,VWS V14.01,2013-10-26 00:45:00,
2013-10-25 19:50:00,39.7,30.7,30.22,SSE,158,8.0,8.0,70,0.00,,---,0.00,VWS V14.01,2013-10-26 00:50:00,
2013-10-25 19:55:00,39.6,30.3,30.21,SSW,205,0.0,8.0,69,0.00,,---,0.00,VWS V14.01,2013-10-26 00:55:00,
2013-10-25 20:00:00,39.6,31.0,30.21,SSE,159,0.0,5.0,71,0.00,,---,0.00,VWS V14.01,2013-10-26 01:00:00,
2013-10-25 20:05:00,39.6,30.6,30.21,ESE,114,0.0,6.0,70,0.00,,---,0.00,VWS V14.01,2013-10-26 01:05:00,
2013-10-25 20:10:00,39.8,30.8,30.21,WNW,292,0.0,6.0,70,0.00,,---,0.00,VWS V14.01,2013-10-26 01:10:00,
2013-10-25 20:15:00,40.0,30.7,30.20,WSW,250,1.0,6.0,69,0.00,,---,0.00,VWS V14.01,2013-10-26 01:15:00,
2013-10-25 20:20:00,40.2,30.9,30.20,South,182,2.0,8.0,69,0.00,,---,0.00,VWS V14.01,2013-10-26 01:20:00,
2013-10-25 20:25:00,40.4,30.7,30.20,SSW,193,0.0,8.0,68,0.00,,---,0.00,VWS V14.01,2013-10-26 01:25:00,
2013-10-25 20:30:00,40.5,31.1,30.20,SW,223,4.0,4.0,69,0.00,,---,0.00,VWS V14.01,2013-10-26 01:30:00,
2013-10-25 20:35:00,40.6,30.9,30.19,SSW,192,4.0,9.0,68,0.00,,---,0.00,VWS V14.01,2013-10-26 01:35:00,
2013-10-25 20:40:00,40.6,30.9,30.19,SSW,196,0.0,9.0,68,0.00,,---,0.00,VWS V14.01,2013-10-26 01:40:00,
2013-10-25 20:45:00,40.7,31.0,30.19,WSW,243,0.0,9.0,68,0.00,,---,0.00,VWS V14.01,2013-10-26 01:45:00,
2013-10-25 20:50:00,40.7,31.0,30.19,South,175,0.0,9.0,68,0.00,,---,0.00,VWS V14.01,2013-10-26 01:50:00,
2013-10-25 20:55:00,40.5,31.1,30.19,South,176,0.0,9.0,69,0.00,,---,0.00,VWS V14.01,2013-10-26 01:55:00,
2013-10-25 21:00:00,40.4,31.0,30.19,SE,128,1.0,5.0,69,0.00,,---,0.00,VWS V14.01,2013-10-26 02:00:00,
2013-10-25 21:05:00,40.3,31.3,30.19,SSE,147,2.0,6.0,70,0.00,,---,0.00,VWS V14.01,2013-10-26 02:05:00,
2013-10-25 21:10:00,40.2,31.6,30.19,South,188,0.0,6.0,71,0.00,,---,0.00,VWS V14.01,2013-10-26 02:10:00,
2013-10-25 21:15:00,40.1,31.1,30.18,WSW,250,0.0,6.0,70,0.00,,---,0.00,VWS V14.01,2013-10-26 02:15:00,
2013-10-25 21:20:00,40.0,30.7,30.18,SW,230,1.0,8.0,69,0.00,,---,0.00,VWS V14.01,2013-10-26 02:20:00,
2013-10-25 21:25:00,40.1,30.8,30.18,SE,146,0.0,8.0,69,0.00,,---,0.00,VWS V14.01,2013-10-26 02:25:00,
2013-10-25 21:30:00,40.2,30.5,30.18,South,180,0.0,7.0,68,0.00,,---,0.00,VWS V14.01,2013-10-26 02:30:00,
2013-10-25 21:35:00,40.2,30.5,30.18,SSE,165,0.0,11.0,68,0.00,,---,0.00,VWS V14.01,2013-10-26 02:35:00,
2013-10-25 21:40:00,40.2,30.9,30.18,South,180,2.0,11.0,69,0.00,,---,0.00,VWS V14.01,2013-10-26 02:40:00,
2013-10-25 21:45:00,40.2,30.1,30.18,SSE,160,0.0,11.0,67,0.00,,---,0.00,VWS V14.01,2013-10-26 02:45:00,
2013-10-25 21:50:00,40.2,30.9,30.18,SE,134,2.0,11.0,69,0.00,,---,0.00,VWS V14.01,2013-10-26 02:50:00,
2013-10-25 21:55:00,40.2,30.5,30.17,South,170,5.0,11.0,68,0.00,,---,0.00,VWS V14.01,2013-10-26 02:55:00,
2013-10-25 22:00:00,40.3,30.2,30.18,SSE,164,0.0,4.0,67,0.00,,---,0.00,VWS V14.01,2013-10-26 03:00:00,
2013-10-25 22:05:00,40.3,30.2,30.18,South,187,3.0,6.0,67,0.00,,---,0.00,VWS V14.01,2013-10-26 03:05:00,
2013-10-25 22:10:00,40.3,30.2,30.18,SE,134,0.0,7.0,67,0.00,,---,0.00,VWS V14.01,2013-10-26 03:10:00,
2013-10-25 22:15:00,40.3,30.2,30.18,WSW,240,1.0,7.0,67,0.00,,---,0.00,VWS V14.01,2013-10-26 03:15:00,
2013-10-25 22:20:00,40.2,30.1,30.18,South,172,0.0,7.0,67,0.00,,---,0.00,VWS V14.01,2013-10-26 03:20:00,
2013-10-25 22:25:00,40.2,30.1,30.17,SSW,205,0.0,7.0,67,0.00,,---,0.00,VWS V14.01,2013-10-26 03:25:00,
2013-10-25 22:30:00,40.2,30.9,30.17,SW,216,1.0,2.0,69,0.00,,---,0.00,VWS V14.01,2013-10-26 03:30:00,
2013-10-25 22:35:00,40.0,30.3,30.17,South,183,2.0,2.0,68,0.00,,---,0.00,VWS V14.01,2013-10-26 03:35:00,
2013-10-25 22:40:00,39.8,30.8,30.17,South,187,0.0,9.0,70,0.00,,---,0.00,VWS V14.01,2013-10-26 03:40:00,
2013-10-25 22:45:00,39.5,30.5,30.17,SSW,197,5.0,9.0,70,0.00,,---,0.00,VWS V14.01,2013-10-26 03:45:00,
2013-10-25 22:50:00,39.3,30.4,30.17,SSW,209,3.0,9.0,70,0.00,,---,0.00,VWS V14.01,2013-10-26 03:50:00,
2013-10-25 22:55:00,39.3,30.7,30.17,SSE,166,0.0,9.0,71,0.00,,---,0.00,VWS V14.01,2013-10-26 03:55:00,
2013-10-25 23:00:00,39.2,30.6,30.17,SSW,196,5.0,5.0,71,0.00,,---,0.00,VWS V14.01,2013-10-26 04:00:00,
2013-10-25 23:01:00,39.2,30.6,30.17,SSE,155,1.0,8.0,71,0.00,,---,0.00,VWS V14.01,2013-10-26 04:01:00,
2013-10-25 23:06:00,39.1,30.5,30.16,SE,144,1.0,8.0,71,0.00,,---,0.00,VWS V14.01,2013-10-26 04:06:00,
2013-10-25 23:11:00,39.0,30.1,30.16,South,172,2.0,8.0,70,0.00,,---,0.00,VWS V14.01,2013-10-26 04:11:00,
2013-10-25 23:16:00,38.9,30.3,30.16,South,186,4.0,8.0,71,0.00,,---,0.00,VWS V14.01,2013-10-26 04:16:00,
2013-10-25 23:21:00,38.8,30.6,30.16,SW,226,0.0,8.0,72,0.00,,---,0.00,VWS V14.01,2013-10-26 04:21:00,
2013-10-25 23:26:00,38.6,30.4,30.15,SSW,192,0.0,8.0,72,0.00,,---,0.00,VWS V14.01,2013-10-26 04:26:00,
2013-10-25 23:30:00,38.5,29.9,30.15,SE,128,0.0,8.0,71,0.00,,---,0.00,VWS V14.01,2013-10-26 04:30:00,
2013-10-25 23:31:00,38.4,30.2,30.15,SE,138,2.0,6.0,72,0.00,,---,0.00,VWS V14.01,2013-10-26 04:31:00,
2013-10-25 23:36:00,38.3,30.1,30.15,SSE,165,3.0,6.0,72,0.00,,---,0.00,VWS V14.01,2013-10-26 04:36:00,
2013-10-25 23:41:00,38.2,30.3,30.15,SSW,199,0.0,8.0,73,0.00,,---,0.00,VWS V14.01,2013-10-26 04:41:00,
2013-10-25 23:46:00,38.1,29.9,30.14,South,181,1.0,9.0,72,0.00,,---,0.00,VWS V14.01,2013-10-26 04:46:00,
2013-10-25 23:51:00,38.1,30.2,30.14,SSE,164,6.0,9.0,73,0.00,,---,0.00,VWS V14.01,2013-10-26 04:51:00,
2013-10-25 23:56:00,38.1,30.6,30.14,SSE,150,1.0,9.0,74,0.00,,---,0.00,VWS V14.01,2013-10-26 04:56:00,